#timestamp,LO_Frequency,Hit,StdDev 
1553583615.6,286046996.8,N
1553583635.4,286046997.4,N
1553583655.2,286046996.8,N
1553583675.1,286046998.2,N
1553583676.0,286046998.2,N
1553583695.8,286047000.8,N
1553583715.7,286047000.6,N
1553583735.5,286047000.0,N
1553583755.3,286047001.0,N
1553583775.2,286047000.5,N
1553583795.0,286047000.1,N
1553583795.9,286047000.1,N
1553583815.7,286047000.5,N
1553583835.6,286047000.5,N
1553583855.4,286046999.8,N
1553583875.3,286047002.8,N
1553583895.1,286047004.0,N
1553583896.0,286047004.0,N
1553583915.8,286047001.5,N
1553583935.7,286047000.7,N
1553583955.5,286047001.1,N
1553583975.3,286047000.5,N
1553583995.2,286047001.0,N
1553584015.0,286046998.5,N
1553584015.9,286046998.5,N
1553584035.8,286047000.0,N
1553584055.6,286047004.2,N
1553584075.4,286047001.7,N
1553584095.3,286047001.9,N
1553584115.1,286047004.3,N
1553584135.8,286047002.2,N
1553584155.7,286047000.2,N
1553584175.5,286046998.1,N
1553584195.4,286047000.1,N
1553584215.2,286047002.4,N
1553584235.0,286047002.7,N
1553584235.9,286047002.7,N
1553584255.8,286047001.5,N
1553584275.6,286047002.5,N
1553584295.4,286047001.2,N
1553584315.3,286047001.2,N
1553584335.1,286047000.3,N
1553584355.9,286047002.5,N
1553584375.7,286047001.7,N
1553584395.5,286047004.2,N
1553584415.4,286047004.0,N
1553584435.2,286047004.4,N
1553584455.1,286047004.4,N
1553584456.0,286047004.4,N
1553584475.8,286047003.7,N
1553584495.6,286047004.0,N
1553584515.5,286047002.5,N
1553584535.3,286047002.3,N
1553584555.1,286046999.7,N
1553584575.9,286047002.3,N
1553584595.7,286047002.3,N
1553584615.6,286047001.7,N
1553584635.4,286047001.9,N
1553584655.2,286047000.1,N
1553584675.1,286047002.0,N
1553584676.0,286047002.0,N
1553584695.8,286047000.5,N
1553584715.6,286046999.2,N
1553584735.5,286046998.5,N
1553584755.3,286047000.5,N
1553584775.2,286047000.6,N
1553584795.9,286047000.8,N
1553584815.7,286047000.1,N
1553584835.6,286047002.8,N
1553584855.4,286047000.7,N
1553584875.2,286046998.8,N
1553584895.1,286046996.6,N
1553584896.0,286046996.6,N
1553584915.8,286046998.7,N
1553584935.7,286046998.8,N
1553584955.5,286046998.9,N
1553584975.3,286046998.3,N
1553584995.2,286047001.1,N
1553585015.0,286047001.0,N
1553585015.9,286047001.0,N
1553585035.7,286047000.7,N
1553585055.6,286046998.7,N
1553585075.4,286046997.3,N
1553585095.3,286046997.4,N
1553585115.1,286046997.3,N
1553585116.0,286046997.3,N
1553585135.8,286046997.1,N
1553585155.7,286046999.2,N
1553585175.5,286046999.6,N
1553585195.3,286046998.5,N
1553585215.2,286046998.3,N
1553585235.0,286046997.3,N
1553585235.9,286046997.3,N
1553585285.8,286046997.6,E
1553585295.7,286046999.4,N
1553585315.6,286047000.0,P
1553585335.4,286047000.7,N
1553585355.2,286046998.1,Y
1553585375.1,286046999.0,P
1553585376.0,286046999.0,N
1553585395.8,286046999.5,N
1553585415.6,286046998.7,Y
1553585435.5,286046998.7,P
1553585455.3,286046999.4,N
1553585475.2,286046999.0,P
1553585495.0,286046997.8,Y
1553585495.9,286046997.8,P
1553585515.7,286046997.3,P
1553585535.6,286046997.3,P
1553585555.4,286046997.2,Y
1553585575.3,286047001.1,P
1553585595.1,286047000.0,N
1553585615.8,286047002.7,N
1553585635.7,286047000.1,N
1553585655.5,286046999.8,N
1553585675.3,286047002.5,N
1553585695.2,286047002.6,N
1553585715.0,286046998.4,N
1553585715.9,286046998.4,N
1553585735.8,286046999.2,N
1553585755.6,286046996.8,N
1553585775.4,286046996.5,N
1553585795.3,286046998.7,N
1553585815.1,286046997.3,N
1553585835.9,286046997.1,N
1553585855.7,286046996.6,N
1553585875.5,286046999.1,N
1553585895.4,286046999.4,N
1553585915.2,286046998.5,N
1553585935.0,286046999.5,N
1553585935.9,286046999.5,N
1553585955.8,286046999.5,N
1553585975.6,286046999.3,N
1553585995.5,286046998.4,N
1553586015.3,286046999.4,N
1553586035.1,286046996.5,N
1553586055.9,286046998.2,N
1553586075.7,286047000.3,N
1553586095.5,286046998.3,N
1553586115.4,286046999.2,N
1553586135.2,286047000.4,N
1553586155.0,286047000.1,N
1553586156.0,286047000.1,N
1553586175.8,286046999.7,N
1553586195.6,286047000.4,N
1553586215.5,286046998.5,N
1553586235.3,286047000.0,N
1553586255.1,286046998.4,N
1553586275.9,286046997.0,N
1553586295.7,286046996.7,N
1553586315.6,286046998.8,N
1553586335.4,286046997.5,N
1553586355.2,286046999.6,N
1553586375.1,286047001.1,N
1553586376.0,286047001.1,N
1553586395.8,286046998.6,N
1553586415.6,286047001.0,N
1553586435.5,286046996.5,N
1553586455.7,286046996.5,N
1553586475.6,286046994.9,Y
1553586495.4,286046997.4,P
1553586515.3,286046995.0,P
1553586535.1,286046994.9,P
1553586536.0,286046994.9,N
1553586555.8,286046995.1,N
1553586575.7,286046997.6,N
1553586595.5,286046999.1,N
1553586615.3,286046998.9,N
1553586635.2,286046999.6,N
1553586655.0,286046999.4,N
1553586655.9,286046999.4,N
1553586675.8,286046999.3,N
1553586695.6,286046999.6,N
1553586715.6,286046999.4,N
1553586735.4,286046997.3,N
1553586755.3,286046995.5,N
1553586775.1,286046997.9,N
1553586795.8,286046999.2,N
1553586815.7,286046999.5,N
1553586835.5,286046997.0,N
1553586855.4,286046997.0,N
1553586875.2,286046999.4,N
1553586895.0,286046999.6,N
1553586895.9,286046999.6,N
1553586915.8,286046996.5,N
1553586935.6,286046997.0,N
1553586955.4,286046999.5,N
1553586975.3,286046998.7,N
1553586995.1,286046998.8,N
1553587015.9,286046998.4,N
1553587035.7,286046997.0,N
1553587055.5,286046997.2,N
1553587075.4,286046997.9,N
1553587095.2,286046997.7,N
1553587115.0,286046997.9,N
1553587115.9,286046997.9,N
1553587135.8,286046997.5,N
1553587155.6,286046996.7,N
1553587175.5,286046996.8,N
1553587195.3,286046997.1,N
